C/2018 W1 ( Catalina )

Japanese version
Home page
Updated on March 28, 2019

---------------------------------------------------------------------

* Profile

Discovery Date November 16, 2018
Magnitude 19.8 mag
Discoverer Catalina Sky Survey

* Pictures

* Orbital Elements

Epoch 2019 Apr. 27.0 TT = JDT 2458600.5
T 2019 May 11.85003 TT                                  MPCW
q   1.3601551            (2000.0)            P               Q
n   0.00967629     Peri.  251.24827     +0.10160382     -0.59234287
a  21.8103934      Node   233.58967     +0.67180384     -0.55169791
e   0.9376373      Incl.   83.27753     -0.73372765     -0.58716210
P 102
From 151 observations 2018 Nov. 16-Dec. 12, mean residual 0".3.

* Finding Charts

* Magnitudes Graph

        m1 = 13.5 + 5 log d + 10.0 log r

---------------------------------------------------------------------

The orbital elements are published on M.P.E.C. 2018-X136.
The charts are made with StellaNavigator Ver.10 (AstroArts).
The magnitudes graphs are made with Comet for Windows.

---------------------------------------------------------------------

Copyright(C) Seiichi Yoshida (comet@aerith.net). All rights reserved.